Tiempo cada hora Muramvya

Hoy, 28 Octubre, Miércoles

Tiempo Temperatura Precipitaciones Viento Presión Humedad
00:00 +2°C° 0 mm 2 mps 722 mmHg 98%
01:00 +2°C° 0 mm 2 mps 722 mmHg 98%
02:00 +2°C° 0 mm 2 mps 723 mmHg 98%
03:00 +2°C° 0 mm 2 mps 723 mmHg 98%
04:00 +2°C° 0 mm 2 mps 722 mmHg 98%
05:00 +2°C° 0 mm 2 mps 722 mmHg 98%
06:00 +2°C° 0 mm 2 mps 722 mmHg 98%
07:00 +1°C° 0 mm 2 mps 723 mmHg 98%
08:00 +1°C° 0 mm 2 mps 723 mmHg 98%
09:00 +1°C° 0 mm 2 mps 723 mmHg 98%
10:00 +2°C° 0 mm 1 mps 723 mmHg 98%
11:00 +2°C° 0 mm 1 mps 723 mmHg 99%
12:00 +1°C° 0 mm 2 mps 723 mmHg 99%
13:00 +1°C° 0 mm 2 mps 723 mmHg 98%
14:00 +2°C° 0 mm 2 mps 723 mmHg 98%
15:00 +2°C° 0 mm 2 mps 723 mmHg 98%
16:00 +2°C° 0 mm 2 mps 724 mmHg 98%
17:00 +2°C° 0 mm 2 mps 724 mmHg 98%
18:00 +2°C° 0 mm 2 mps 724 mmHg 98%
19:00 +2°C° 0 mm 2 mps 724 mmHg 98%
20:00 +2°C° 0 mm 2 mps 724 mmHg 98%
21:00 +2°C° 0 mm 2 mps 724 mmHg 98%
22:00 +2°C° 0 mm 2 mps 724 mmHg 98%
23:00 +2°C° 0 mm 2 mps 724 mmHg 98%

Mañana, 29 Octubre, Jueves

Tiempo Temperatura Precipitaciones Viento Presión Humedad
00:00 +2°C° 0 mm 2 mps 723 mmHg 98%
01:00 +2°C° 0 mm 2 mps 723 mmHg 98%
02:00 +2°C° 0 mm 2 mps 723 mmHg 98%
03:00 +2°C° 0.1 mm 2 mps 722 mmHg 98%
04:00 +2°C° 0.1 mm 2 mps 722 mmHg 98%
05:00 +2°C° 0.1 mm 2 mps 721 mmHg 98%
06:00 +3°C° 0.6 mm 1 mps 721 mmHg 98%
07:00 +3°C° 0.6 mm 1 mps 721 mmHg 98%
08:00 +3°C° 0.6 mm 1 mps 721 mmHg 98%
09:00 +2°C° 0.4 mm 2 mps 721 mmHg 98%
10:00 +2°C° 0.4 mm 2 mps 721 mmHg 98%
11:00 +1°C° 0.4 mm 3 mps 721 mmHg 98%
12:00 +1°C° 0.3 mm 3 mps 721 mmHg 98%
13:00 +2°C° 0.3 mm 2 mps 721 mmHg 97%
14:00 +2°C° 0.3 mm 2 mps 721 mmHg 97%
15:00 +1°C° 0.1 mm 2 mps 722 mmHg 95%
16:00 -1°C° 0.1 mm 2 mps 722 mmHg 92%
17:00 -3°C° 0.1 mm 2 mps 723 mmHg 89%
18:00 -3°C° 0 mm 2 mps 724 mmHg 89%
19:00 -3°C° 0 mm 2 mps 724 mmHg 89%
20:00 -3°C° 0 mm 2 mps 725 mmHg 89%
21:00 -3°C° 0 mm 2 mps 726 mmHg 88%
22:00 -4°C° 0 mm 2 mps 727 mmHg 88%
23:00 -4°C° 0 mm 2 mps 727 mmHg 87%

Pasado mañana, 30 Octubre, Viernes

Tiempo Temperatura Precipitaciones Viento Presión Humedad
00:00 -2°C° 0 mm 1 mps 728 mmHg 86%
01:00 -2°C° 0 mm 1 mps 729 mmHg 86%
02:00 -3°C° 0 mm 1 mps 729 mmHg 85%
03:00 -3°C° 0 mm 1 mps 730 mmHg 84%
04:00 -3°C° 0 mm 1 mps 730 mmHg 82%
05:00 -3°C° 0 mm 1 mps 731 mmHg 81%
06:00 -3°C° 0 mm 1 mps 732 mmHg 80%
07:00 -3°C° 0 mm 1 mps 732 mmHg 78%
08:00 -3°C° 0 mm 1 mps 733 mmHg 77%
09:00 -3°C° 0 mm 1 mps 733 mmHg 76%
10:00 -2°C° 0 mm 1 mps 734 mmHg 74%
11:00 -2°C° 0 mm 1 mps 734 mmHg 72%
12:00 -2°C° 0 mm 1 mps 735 mmHg 73%
13:00 -2°C° 0 mm 1 mps 735 mmHg 74%
14:00 -2°C° 0 mm 1 mps 736 mmHg 74%
15:00 -2°C° 0 mm 1 mps 736 mmHg 76%
16:00 -3°C° 0 mm 1 mps 736 mmHg 77%
17:00 -3°C° 0 mm 1 mps 737 mmHg 78%
18:00 -4°C° 0 mm 1 mps 737 mmHg 78%
19:00 -5°C° 0 mm 0 mps 737 mmHg 78%
20:00 -5°C° 0 mm 0 mps 738 mmHg 78%
21:00 -5°C° 0 mm 0 mps 738 mmHg 78%
22:00 -5°C° 0 mm 0 mps 738 mmHg 78%
23:00 -5°C° 0 mm 0 mps 739 mmHg 78%

31 Octubre, Sábado

Tiempo Temperatura Precipitaciones Viento Presión Humedad
00:00 -5°C° 0 mm 0 mps 739 mmHg 78%
01:00 -5°C° 0 mm 0 mps 739 mmHg 79%
02:00 -6°C° 0 mm 0 mps 739 mmHg 79%
03:00 -6°C° 0 mm 1 mps 739 mmHg 80%
04:00 -6°C° 0 mm 1 mps 739 mmHg 81%
05:00 -6°C° 0 mm 1 mps 740 mmHg 82%
06:00 -7°C° 0 mm 2 mps 740 mmHg 83%
07:00 -7°C° 0 mm 2 mps 739 mmHg 83%
08:00 -8°C° 0 mm 3 mps 739 mmHg 84%
09:00 -7°C° 0 mm 3 mps 740 mmHg 84%
10:00 -7°C° 0 mm 4 mps 740 mmHg 84%
11:00 -5°C° 0 mm 4 mps 740 mmHg 83%
12:00 -6°C° 0 mm 5 mps 740 mmHg 84%
13:00 -5°C° 0 mm 5 mps 740 mmHg 84%
14:00 -5°C° 0 mm 5 mps 740 mmHg 84%
15:00 -5°C° 0 mm 5 mps 739 mmHg 87%
16:00 -5°C° 0 mm 5 mps 739 mmHg 89%
17:00 -4°C° 0 mm 4 mps 739 mmHg 91%
18:00 -4°C° 0 mm 4 mps 739 mmHg 91%
19:00 -4°C° 0 mm 4 mps 739 mmHg 92%
20:00 -3°C° 0 mm 4 mps 739 mmHg 92%
21:00 -3°C° 0 mm 4 mps 738 mmHg 92%
22:00 -3°C° 0 mm 4 mps 738 mmHg 92%
23:00 -3°C° 0 mm 4 mps 738 mmHg 93%

1 Noviembre, Domingo

Tiempo Temperatura Precipitaciones Viento Presión Humedad
00:00 -3°C° 0.1 mm 4 mps 737 mmHg 94%
01:00 -3°C° 0.1 mm 4 mps 736 mmHg 95%
02:00 -3°C° 0.1 mm 4 mps 736 mmHg 96%
03:00 -2°C° 0.4 mm 5 mps 735 mmHg 96%
04:00 -2°C° 0.4 mm 5 mps 734 mmHg 96%
05:00 -2°C° 0.4 mm 6 mps 733 mmHg 95%
06:00 -2°C° 0.5 mm 6 mps 732 mmHg 95%
07:00 -1°C° 0.5 mm 6 mps 731 mmHg 95%
08:00 -1°C° 0.5 mm 6 mps 730 mmHg 95%
09:00 +1°C° 0.3 mm 6 mps 730 mmHg 95%
10:00 +1°C° 0.3 mm 6 mps 729 mmHg 96%
11:00 +2°C° 0.3 mm 6 mps 728 mmHg 96%
12:00 +3°C° 0.4 mm 6 mps 728 mmHg 97%
13:00 +3°C° 0.4 mm 6 mps 727 mmHg 97%
14:00 +3°C° 0.4 mm 5 mps 726 mmHg 97%
15:00 +3°C° 0.6 mm 5 mps 726 mmHg 97%
16:00 +4°C° 0.6 mm 6 mps 725 mmHg 97%
17:00 +4°C° 0.6 mm 6 mps 724 mmHg 96%
18:00 +4°C° 0.3 mm 6 mps 724 mmHg 96%
19:00 +4°C° 0.3 mm 6 mps 723 mmHg 96%
20:00 +4°C° 0.3 mm 6 mps 723 mmHg 95%
21:00 +4°C° 0.2 mm 6 mps 722 mmHg 95%
22:00 +4°C° 0.2 mm 6 mps 722 mmHg 95%
23:00 +4°C° 0.2 mm 6 mps 721 mmHg 94%

2 Noviembre, Lunes

Tiempo Temperatura Precipitaciones Viento Presión Humedad
00:00 +5°C° 0.7 mm 7 mps 720 mmHg 94%
01:00 +5°C° 0.7 mm 7 mps 719 mmHg 94%
02:00 +5°C° 0.7 mm 7 mps 718 mmHg 94%
03:00 +5°C° 0.6 mm 7 mps 717 mmHg 94%
04:00 +5°C° 0.6 mm 7 mps 716 mmHg 94%
05:00 +5°C° 0.6 mm 7 mps 715 mmHg 94%
06:00 +5°C° 1.3 mm 7 mps 713 mmHg 94%
07:00 +5°C° 1.3 mm 7 mps 712 mmHg 94%
08:00 +5°C° 1.3 mm 7 mps 711 mmHg 94%
09:00 +5°C° 0.8 mm 7 mps 710 mmHg 93%
10:00 +5°C° 0.8 mm 7 mps 709 mmHg 92%
11:00 +5°C° 0.8 mm 6 mps 708 mmHg 91%
12:00 +5°C° 0.4 mm 7 mps 709 mmHg 89%
13:00 +5°C° 0.4 mm 8 mps 709 mmHg 87%
14:00 +5°C° 0.4 mm 8 mps 710 mmHg 85%
15:00 +4°C° 0 mm 8 mps 710 mmHg 83%
16:00 +4°C° 0 mm 8 mps 711 mmHg 81%
17:00 +2°C° 0 mm 8 mps 712 mmHg 79%
18:00 +3°C° 0 mm 7 mps 713 mmHg 81%
19:00 +2°C° 0 mm 7 mps 713 mmHg 82%
20:00 +2°C° 0 mm 6 mps 713 mmHg 84%
21:00 +2°C° 0 mm 6 mps 714 mmHg 86%
22:00 +1°C° 0 mm 5 mps 714 mmHg 88%
23:00 +1°C° 0 mm 4 mps 714 mmHg 90%
Mostrar más

Necesitamos Su Consentimiento

Meteoprog y nuestros Proveedores de Servicios pueden almacenar y acceder a sus datos personales como cookies, identificadores de dispositivo u otras tecnologías similares de su dispositivo y procesar dichos datos para personalizar contenido y anuncios, además de ofrecer funciones de redes sociales y analizar el tráfico.

  • Almacenar y/o acceder a información en su dispositivo

    Se puede almacenar o acceder a cookies, identificadores de dispositivo u otra información de su dispositivo para los fines anteriormente indicados.

  • Anuncios y contenido personalizados, medición de anuncios y contenido, percepciones del público, y desarrollo de productos

    Los anuncios y el contenido pueden personalizarse en base a su perfil. Se pueden añadir más datos para personalizar mejor los anuncios y contenidos. Se puede medir el rendimiento de los anuncios y contenidos. Se puede obtener la percepción sobre el público que ha visto los anuncios y contenidos. Dichos datos pueden usarse para desarrollar o mejorar la experiencia del usuario, sistemas y software.

Al hacer clic en ‘Estoy De Acuerdo’ usted permitirá el uso de las cookies, identificadores de dispositivo, balizas web u otras tecnologías similares indicadas. Su configuración puede cambiarse desde el navegador de su dispositivo.

Para ciertos fines, los intereses legítimos pueden ser considerados por encima del consentimiento. Puede leer más sobre ello en nuestra Política de Privacidad y Cookies.